Welcome to the New NWS' Forecast!
Most changes are behind the scenes, but click here for differences you might notice.

Regional Weather Roundup (RWR)

Issued by Gray - Portland, ME (GYX)

                            
000
ASUS41 KGYX 142110
RWRGYX
WEATHER ROUNDUP FOR MAINE AND NEW HAMPSHIRE
NATIONAL WEATHER SERVICE GRAY ME
500 PM EDT TUE AUG 14 2018

MEZ002-005-006-010-012-015-018-020-021-024-026-027-029-142200-
MAINE
  
CITY           SKY/WX    TMP DP  RH WIND       PRES   REMARKS
PORTLAND       FAIR      72  69  90 E9        29.87S FOG              
SANFORD        HVY RAIN  70  66  88 CALM      29.87R FOG              
BAR HARBOR     CLOUDY    72  68  87 SE3       29.88F                  
WISCASSET      FAIR      75  70  84 SE5       29.88F                  
ROCKLAND       CLOUDY    66  66 100 E3        29.89S FOG              
FRYEBURG       FAIR      79  73  82 S5        29.85F                  
LEWISTONAUBURN FAIR      78  71  79 S6        29.86F                  
AUGUSTA        PTSUNNY   76  70  82 SE7       29.87F                  
WATERVILLE     FAIR      76  71  85 SW3       29.84F                  
BANGOR         CLOUDY    78  70  76 S10       29.86F                  
GREENVILLE       N/A     71  69  93 VRB5      29.87F                  
MILLINOCKET    CLOUDY    79  69  71 CALM      29.86F                  
HOULTON        CLOUDY    77  73  87 S3        29.84F                  
PRESQUE ISLE   CLOUDY    81  68  64 SW12      29.83F                  
FRENCHVILLE    FAIR      78  67  68 SE5       29.84F                  
CARIBOU        PTSUNNY   81  69  67 S9        29.82F                  
$$

NHZ002-005-008-009-011-012-014-142200-
NEW HAMPSHIRE
  
CITY           SKY/WX    TMP DP  RH WIND       PRES   REMARKS
PORTSMOUTH     LGT RAIN  70  68  92 CALM      29.86R FOG              
ROCHESTER      CLOUDY    69  69 100 CALM      29.86S                  
MANCHESTER     NOT AVBL                                               
CONCORD        FAIR      73  69  87 SE5       29.84F                  
LACONIA        FAIR      76  70  82 S7        29.85F                  
PLYMOUTH       LGT RAIN  75  69  82 CALM      29.84S                  
BERLIN         FAIR      79  68  69 S7        29.85F                  
WHITEFIELD     FAIR      81  67  62 CALM      29.84F                  
JAFFREY        NOT AVBL                                               
LEBANON        PTSUNNY   80  69  69 CALM      29.82S                  
MT WASHINGTON  FOG       57  55  94 SW12G18     N/A  VSB 1/4          
$$

VTZ005-007-008-142200-
VERMONT
  
CITY           SKY/WX    TMP DP  RH WIND       PRES   REMARKS
ST JOHNSBURY     N/A     80  67  64 MISG      29.81S                  
MONTPELIER     FAIR      77  67  71 S9        29.88S                  
BURLINGTON     PTSUNNY   83  64  52 S9        29.78F                  
$$

MAZ007-012-024-CTZ003-RIZ002-NYZ038-NYZ072-142200-
SOUTHERN NEW ENGLAND AND NY
  
CITY           SKY/WX    TMP DP  RH WIND       PRES   REMARKS
BOSTON         PTSUNNY   79  72  79 N9        29.83F                  
WORCESTER      LGT RAIN  71  69  93 VRB3      29.87S                  
NANTUCKET      FAIR      77  73  87 S12       29.87F                  
PROVIDENCE     FAIR      82  70  66 S13       29.83F                  
HARTFORD       PTSUNNY   84  65  52 S10       29.79F                  
ALBANY         PTSUNNY   81  67  62 NE6       29.78F THUNDER          
NEW YORK CITY  PTSUNNY   75  68  78 S8        29.82F                  
$$

ANZ081-ANZ082-ANZ150-NHZ014-MEZ023>029-142200-
COASTAL MARINE OBSERVATIONS
  
STATION/POSITION TIME  TEMP    WIND        PRES    WAVE
                       AIR SEA DIR/SP/G            HT/PER
                 (UTC) (F)     (DEG/KT/KT) (MB)    (FT/S)
MOUNT DESERT ROC 2100   67     160/  7/  7 1012.0F
MATINICUS ROCK   2000   68     170/  8/  8 1011.7F
ISLE OF SHOALS   2000   70      80/ 12/ 13 1010.3F
JEFFREYS LEDGE   2036      73                N/A     2/ 6
$$

.............KEY..............
   WCI - WIND CHILL
   TC  - TEMPERATURE IN CELSIUS
   VSB - VISIBILITY IN MILES
   HX  - HEAT INDEX
   FAIR- INDICATES FEW OR NO CLOUDS BELOW 12,000 FT, WITH NO 
         SIGNIFICANT WEATHER AND/OR OBSTRUCTIONS TO VISIBILITY.